BEL75Y LGKO-EBBR

Flight info

Callsign BEL75Y
Flight time N/A
Altitude 36000
Route LARKI UL609 MES DCT DISOR DCT LONTA UL608 DOLEV DCT YUYUH DCT KOMAR DCT KUSIB DCT GORPA DCT DOL DCT NIPEL DCT ERKIR DCT BABEG DCT IDOVI Z104 GESLO N852 LNO
Aircraft A320/M-DE3FGHIJ1LORVWY/H

Departure

Time 2026-05-08 06:29
Airport Kos International Airport "Ippokratis" (LGKO)

Arrival

Time N/A
Airport Brussels Airport (EBBR)
Time Latitude Longitude Altitude Speed Heading
2026-05-08 06:09 36.80149 27.08933 419 ft 0 kts 58°
2026-05-08 06:23 36.80148 27.08931 419 ft 2 kts 58°
2026-05-08 06:24 36.80134 27.08904 408 ft 4 kts 54°
2026-05-08 06:24 36.80117 27.08878 414 ft 4 kts 43°
2026-05-08 06:24 36.80097 27.08861 412 ft 4 kts 358°
2026-05-08 06:24 36.80087 27.08863 415 ft 0 kts 328°
2026-05-08 06:26 36.80088 27.08862 415 ft 0 kts 328°
2026-05-08 06:26 36.80119 27.08838 411 ft 12 kts 328°
2026-05-08 06:26 36.80192 27.08781 414 ft 11 kts 328°
2026-05-08 06:26 36.80249 27.08737 420 ft 9 kts 328°
2026-05-08 06:27 36.80310 27.08687 420 ft 13 kts 321°
2026-05-08 06:27 36.80341 27.08593 415 ft 13 kts 283°
2026-05-08 06:27 36.80357 27.08491 421 ft 10 kts 267°
2026-05-08 06:27 36.80305 27.08457 411 ft 9 kts 160°
2026-05-08 06:28 36.80293 27.08465 415 ft 0 kts 152°
2026-05-08 06:28 36.80291 27.08466 413 ft 3 kts 152°
2026-05-08 06:28 36.80105 27.08612 417 ft 70 kts 148°
2026-05-08 06:28 36.79499 27.09080 410 ft 133 kts 148°
2026-05-08 06:29 36.78597 27.09786 637 ft 159 kts 148°
2026-05-08 06:29 36.77665 27.10518 1268 ft 158 kts 148°
2026-05-08 06:29 36.76732 27.11241 1946 ft 158 kts 148°
2026-05-08 06:29 36.75784 27.11975 2434 ft 167 kts 148°
2026-05-08 06:30 36.74749 27.12824 2635 ft 190 kts 139°
2026-05-08 06:30 36.74134 27.14335 2832 ft 212 kts 92°
2026-05-08 06:30 36.74496 27.16158 3251 ft 224 kts 66°
2026-05-08 06:30 36.75189 27.17902 3953 ft 225 kts 62°
2026-05-08 06:31 36.75949 27.19628 4681 ft 228 kts 61°
2026-05-08 06:31 36.76722 27.21360 5350 ft 231 kts 61°
2026-05-08 06:31 36.77502 27.23118 6037 ft 233 kts 60°
2026-05-08 06:31 36.78359 27.24836 6727 ft 234 kts 57°
2026-05-08 06:32 36.79269 27.26529 7379 ft 236 kts 53°
2026-05-08 06:32 36.80484 27.27885 7976 ft 238 kts 23°
2026-05-08 06:32 36.82094 27.28246 8580 ft 238 kts 351°
2026-05-08 06:32 36.83629 27.27513 9220 ft 239 kts 326°
2026-05-08 06:33 36.85008 27.26358 9919 ft 240 kts 325°
2026-05-08 06:33 36.86393 27.25189 10572 ft 241 kts 325°
2026-05-08 06:33 36.87790 27.24011 11214 ft 242 kts 325°
2026-05-08 06:33 36.89196 27.22832 11863 ft 244 kts 325°
2026-05-08 06:34 36.90612 27.21645 12507 ft 246 kts 325°
2026-05-08 06:34 36.92035 27.20452 13139 ft 248 kts 325°
2026-05-08 06:34 36.93465 27.19229 13770 ft 249 kts 320°
2026-05-08 06:34 36.94640 27.17642 14298 ft 251 kts 302°
2026-05-08 06:35 36.95687 27.15797 14485 ft 272 kts 316°
2026-05-08 06:35 36.97289 27.14364 14620 ft 294 kts 327°
2026-05-08 06:35 36.99113 27.13086 14740 ft 315 kts 330°
2026-05-08 06:35 37.01117 27.11782 14881 ft 334 kts 331°
2026-05-08 06:36 37.03236 27.10403 15035 ft 351 kts 330°
2026-05-08 06:36 37.05410 27.08939 15487 ft 357 kts 329°
2026-05-08 06:36 37.07595 27.07412 16065 ft 360 kts 329°
2026-05-08 06:36 37.09777 27.05848 16649 ft 363 kts 328°
2026-05-08 06:37 37.11965 27.04254 17235 ft 365 kts 328°
2026-05-08 06:37 37.14163 27.02643 17816 ft 367 kts 327°
2026-05-08 06:37 37.16374 27.01021 18398 ft 369 kts 327°
2026-05-08 06:37 37.18600 26.99393 18907 ft 371 kts 327°
2026-05-08 06:38 37.20840 26.97758 19429 ft 373 kts 327°
2026-05-08 06:38 37.23089 26.96117 19952 ft 375 kts 327°
2026-05-08 06:38 37.25349 26.94469 20475 ft 376 kts 327°
2026-05-08 06:38 37.27618 26.92812 20988 ft 379 kts 326°
2026-05-08 06:39 37.29897 26.91149 21479 ft 381 kts 326°
2026-05-08 06:39 37.32193 26.89473 21976 ft 383 kts 326°
2026-05-08 06:39 37.34500 26.87788 22466 ft 384 kts 326°
2026-05-08 06:39 37.36817 26.86095 22940 ft 386 kts 326°
2026-05-08 06:40 37.39140 26.84384 23404 ft 387 kts 323°
2026-05-08 06:40 37.41282 26.82361 23835 ft 385 kts 315°
2026-05-08 06:40 37.43317 26.80155 24221 ft 386 kts 315°
2026-05-08 06:40 37.45351 26.77955 24590 ft 387 kts 316°
2026-05-08 06:41 37.47396 26.75745 24963 ft 388 kts 316°
2026-05-08 06:41 37.49450 26.73522 25324 ft 389 kts 315°
2026-05-08 06:41 37.51480 26.71321 25674 ft 390 kts 315°
2026-05-08 06:41 37.53539 26.69089 26019 ft 391 kts 316°
2026-05-08 06:42 37.55628 26.66830 26372 ft 392 kts 316°
2026-05-08 06:42 37.57700 26.64589 26714 ft 393 kts 316°
2026-05-08 06:42 37.59775 26.62339 27044 ft 394 kts 316°
2026-05-08 06:42 37.61829 26.60111 27363 ft 395 kts 316°
2026-05-08 06:43 37.63942 26.57814 27682 ft 396 kts 316°
2026-05-08 06:43 37.66034 26.55542 28004 ft 397 kts 315°
2026-05-08 06:43 37.68101 26.53296 28325 ft 398 kts 315°
2026-05-08 06:43 37.70205 26.51009 28631 ft 399 kts 315°
2026-05-08 06:44 37.72311 26.48722 28912 ft 400 kts 315°
2026-05-08 06:44 37.74424 26.46427 29190 ft 401 kts 315°
2026-05-08 06:44 37.76547 26.44117 29443 ft 402 kts 315°
2026-05-08 06:44 37.77954 26.42585 29611 ft 403 kts 315°
2026-05-08 06:45 37.80081 26.40267 29870 ft 404 kts 315°
2026-05-08 06:45 37.82212 26.37940 30105 ft 405 kts 315°
2026-05-08 06:45 37.84353 26.35602 30289 ft 408 kts 315°
2026-05-08 06:45 37.86506 26.33256 30469 ft 409 kts 315°
2026-05-08 06:46 37.88660 26.30907 30711 ft 408 kts 315°
2026-05-08 06:46 37.90802 26.28562 31000 ft 406 kts 315°
2026-05-08 06:46 37.92932 26.26224 31290 ft 404 kts 315°
2026-05-08 06:46 37.95052 26.23895 31594 ft 402 kts 314°
2026-05-08 06:47 37.97160 26.21576 31867 ft 400 kts 314°
2026-05-08 06:47 37.99256 26.19270 32153 ft 399 kts 314°
2026-05-08 06:47 38.01350 26.16961 32433 ft 397 kts 314°
2026-05-08 06:47 38.03431 26.14664 32703 ft 396 kts 314°
2026-05-08 06:48 38.05504 26.12373 32974 ft 394 kts 314°
2026-05-08 06:48 38.07570 26.10090 33250 ft 393 kts 314°
2026-05-08 06:48 38.09635 26.07811 33517 ft 392 kts 314°
2026-05-08 06:48 38.11687 26.05542 33801 ft 390 kts 313°
2026-05-08 06:49 38.13734 26.03277 34075 ft 390 kts 313°
2026-05-08 06:49 38.15771 26.01022 34317 ft 389 kts 313°
2026-05-08 06:49 38.17811 25.98763 34569 ft 388 kts 313°
2026-05-08 06:49 38.19836 25.96518 34803 ft 387 kts 313°
2026-05-08 06:50 38.21859 25.94273 35044 ft 385 kts 313°
2026-05-08 06:50 38.23876 25.92031 35241 ft 385 kts 313°
2026-05-08 06:50 38.25866 25.89828 35414 ft 384 kts 314°
2026-05-08 06:50 38.27933 25.87666 35609 ft 385 kts 315°
2026-05-08 06:51 38.30043 25.85568 35812 ft 385 kts 316°
2026-05-08 06:51 38.32169 25.83505 35995 ft 384 kts 316°
2026-05-08 06:51 38.34295 25.81449 36120 ft 383 kts 316°
2026-05-08 06:51 38.36411 25.79386 36148 ft 383 kts 316°
2026-05-08 06:52 38.40609 25.75234 36166 ft 382 kts 315°
2026-05-08 06:52 38.44785 25.71064 36149 ft 381 kts 315°
2026-05-08 06:53 38.48957 25.66881 36149 ft 381 kts 315°
2026-05-08 06:53 38.53125 25.62699 36150 ft 381 kts 315°
2026-05-08 06:54 38.57298 25.58504 36148 ft 382 kts 315°
2026-05-08 06:54 38.61478 25.54305 36146 ft 382 kts 315°
2026-05-08 06:55 38.65625 25.50134 36142 ft 382 kts 315°
2026-05-08 06:55 38.69800 25.45928 36162 ft 382 kts 315°
2026-05-08 06:56 38.73978 25.41717 36154 ft 382 kts 315°
2026-05-08 06:56 38.78159 25.37494 36148 ft 382 kts 315°
2026-05-08 06:57 38.82339 25.33250 36147 ft 382 kts 315°
2026-05-08 06:57 38.86515 25.29015 36138 ft 383 kts 314°
2026-05-08 06:58 38.90675 25.24792 36128 ft 384 kts 314°
2026-05-08 06:58 38.94859 25.20534 36135 ft 384 kts 314°
2026-05-08 06:59 38.99046 25.16273 36135 ft 384 kts 314°
2026-05-08 06:59 39.03230 25.12003 36129 ft 384 kts 314°
2026-05-08 07:00 39.07413 25.07721 36132 ft 384 kts 314°
2026-05-08 07:00 39.11595 25.03434 36130 ft 384 kts 314°
2026-05-08 07:01 39.15782 24.99144 36121 ft 384 kts 313°
2026-05-08 07:01 39.19971 24.94838 36106 ft 386 kts 313°
2026-05-08 07:02 39.24170 24.90515 36118 ft 387 kts 313°
2026-05-08 07:02 39.28387 24.86175 36102 ft 388 kts 313°
2026-05-08 07:03 39.32576 24.81851 36109 ft 388 kts 313°
2026-05-08 07:03 39.36800 24.77494 36112 ft 389 kts 313°
2026-05-08 07:04 39.41024 24.73123 36110 ft 388 kts 313°
2026-05-08 07:04 39.45240 24.68747 36120 ft 389 kts 313°
2026-05-08 07:05 39.49464 24.64361 36132 ft 389 kts 313°
2026-05-08 07:05 39.53687 24.59968 36125 ft 390 kts 313°
2026-05-08 07:06 39.57912 24.55562 36116 ft 390 kts 313°
2026-05-08 07:06 39.62144 24.51153 36111 ft 390 kts 313°
2026-05-08 07:07 39.66376 24.46732 36128 ft 391 kts 313°
2026-05-08 07:07 39.70586 24.42328 36132 ft 391 kts 313°
2026-05-08 07:08 39.74820 24.37888 36116 ft 391 kts 313°
2026-05-08 07:08 39.79044 24.33436 36109 ft 392 kts 312°
2026-05-08 07:09 39.83296 24.28959 36105 ft 393 kts 313°
2026-05-08 07:09 39.87555 24.24476 36104 ft 394 kts 312°
2026-05-08 07:10 39.91817 24.19979 36103 ft 395 kts 312°
2026-05-08 07:10 39.96088 24.15477 36105 ft 395 kts 313°
2026-05-08 07:11 40.00357 24.10963 36104 ft 395 kts 312°
2026-05-08 07:11 40.04625 24.06432 36123 ft 396 kts 312°
2026-05-08 07:12 40.08913 24.01875 36098 ft 398 kts 312°
2026-05-08 07:12 40.13198 23.97309 36094 ft 400 kts 312°
2026-05-08 07:13 40.17514 23.92701 36095 ft 401 kts 312°
2026-05-08 07:13 40.21848 23.88077 36098 ft 402 kts 312°
2026-05-08 07:14 40.26179 23.83449 36104 ft 402 kts 312°
2026-05-08 07:14 40.30515 23.78813 36106 ft 402 kts 312°
2026-05-08 07:15 40.34853 23.74154 36119 ft 403 kts 312°
2026-05-08 07:15 40.39190 23.69480 36106 ft 405 kts 312°
2026-05-08 07:16 40.43555 23.64777 36105 ft 406 kts 312°
2026-05-08 07:16 40.47897 23.60093 36103 ft 407 kts 312°
2026-05-08 07:17 40.52283 23.55362 36105 ft 408 kts 313°
2026-05-08 07:17 40.56667 23.50621 36125 ft 409 kts 313°
2026-05-08 07:18 40.61061 23.45847 36111 ft 410 kts 313°
2026-05-08 07:18 40.65474 23.41053 36111 ft 412 kts 313°
2026-05-08 07:19 40.69909 23.36229 36100 ft 414 kts 313°
2026-05-08 07:19 40.74362 23.31363 36104 ft 416 kts 313°
2026-05-08 07:20 40.78825 23.26489 36097 ft 417 kts 313°
2026-05-08 07:20 40.83295 23.21593 36126 ft 418 kts 313°
2026-05-08 07:21 40.87745 23.16720 36108 ft 419 kts 313°
2026-05-08 07:21 40.92233 23.11799 36107 ft 419 kts 313°
2026-05-08 07:22 40.96731 23.06843 36104 ft 421 kts 313°
2026-05-08 07:22 41.01243 23.01869 36099 ft 423 kts 313°
2026-05-08 07:23 41.05767 22.96877 36099 ft 424 kts 313°
2026-05-08 07:23 41.10294 22.91856 36114 ft 425 kts 314°
2026-05-08 07:24 41.14844 22.86822 36094 ft 426 kts 314°
2026-05-08 07:24 41.19394 22.81772 36101 ft 427 kts 314°
2026-05-08 07:25 41.23946 22.76693 36108 ft 427 kts 312°
2026-05-08 07:26 41.29990 22.68153 36098 ft 423 kts 306°
2026-05-08 07:26 41.33949 22.62352 36094 ft 424 kts 306°
2026-05-08 07:27 41.37894 22.56574 36108 ft 425 kts 306°
2026-05-08 07:27 41.41897 22.50689 36097 ft 426 kts 306°
2026-05-08 07:28 41.45859 22.44857 36109 ft 427 kts 307°
2026-05-08 07:28 41.49851 22.38968 36096 ft 428 kts 307°
2026-05-08 07:29 41.53848 22.33059 36094 ft 429 kts 307°
2026-05-08 07:29 41.57849 22.27136 36094 ft 430 kts 307°
2026-05-08 07:30 41.61851 22.21195 36098 ft 430 kts 306°
2026-05-08 07:30 41.65179 22.16238 36112 ft 431 kts 307°
2026-05-08 07:31 41.69190 22.10267 36128 ft 432 kts 307°
2026-05-08 07:31 41.73209 22.04286 36123 ft 432 kts 307°
2026-05-08 07:32 41.77221 21.98290 36121 ft 432 kts 307°
2026-05-08 07:32 41.81226 21.92281 36112 ft 432 kts 307°
2026-05-08 07:33 41.85230 21.86268 36110 ft 432 kts 307°
2026-05-08 07:33 41.89232 21.80242 36111 ft 433 kts 307°
2026-05-08 07:34 41.93241 21.74195 36137 ft 433 kts 307°
2026-05-08 07:34 41.97214 21.68192 36131 ft 432 kts 307°
2026-05-08 07:35 42.01203 21.62158 36136 ft 432 kts 307°
2026-05-08 07:35 42.05189 21.56118 36121 ft 431 kts 307°
2026-05-08 07:36 42.09170 21.50067 36125 ft 432 kts 307°
2026-05-08 07:36 42.13149 21.44012 36118 ft 431 kts 307°
2026-05-08 07:37 42.17119 21.37936 36117 ft 431 kts 306°
2026-05-08 07:37 42.21009 21.31791 36125 ft 430 kts 306°
2026-05-08 07:38 42.24860 21.25623 36132 ft 429 kts 306°
2026-05-08 07:38 42.28720 21.19464 36124 ft 429 kts 306°
2026-05-08 07:39 42.32576 21.13324 36140 ft 428 kts 306°
2026-05-08 07:39 42.36441 21.07176 36118 ft 429 kts 306°
2026-05-08 07:40 42.40291 21.01008 36110 ft 429 kts 305°
2026-05-08 07:40 42.44114 20.94859 36109 ft 430 kts 306°
2026-05-08 07:41 42.47969 20.88667 36121 ft 430 kts 306°
2026-05-08 07:41 42.51822 20.82465 36127 ft 430 kts 305°
2026-05-08 07:42 42.55668 20.76261 36129 ft 429 kts 305°
2026-05-08 07:42 42.59511 20.70054 36117 ft 430 kts 305°
2026-05-08 07:43 42.63353 20.63835 36109 ft 430 kts 305°
2026-05-08 07:43 42.67193 20.57592 36104 ft 430 kts 305°
2026-05-08 07:44 42.71034 20.51339 36100 ft 430 kts 305°
2026-05-08 07:44 42.74846 20.45128 36110 ft 431 kts 305°
2026-05-08 07:45 42.78686 20.38858 36109 ft 432 kts 305°
2026-05-08 07:45 42.82529 20.32557 36094 ft 432 kts 305°
2026-05-08 07:46 42.86367 20.26260 36085 ft 432 kts 305°
2026-05-08 07:46 42.90213 20.19943 36080 ft 432 kts 305°
2026-05-08 07:47 42.94051 20.13622 36082 ft 432 kts 305°
2026-05-08 07:47 42.97891 20.07283 36073 ft 433 kts 305°
2026-05-08 07:48 43.01706 20.00973 36065 ft 434 kts 305°
2026-05-08 07:48 43.05546 19.94592 36068 ft 435 kts 305°
2026-05-08 07:49 43.09390 19.88193 36074 ft 436 kts 305°
2026-05-08 07:49 43.13244 19.81781 36079 ft 436 kts 305°
2026-05-08 07:50 43.17090 19.75371 36094 ft 436 kts 305°
2026-05-08 07:50 43.20944 19.68934 36084 ft 436 kts 304°
2026-05-08 07:51 43.24793 19.62482 36086 ft 437 kts 305°
2026-05-08 07:51 43.28759 19.56144 36083 ft 438 kts 307°
2026-05-08 07:52 43.32812 19.49884 36094 ft 438 kts 307°
2026-05-08 07:52 43.36837 19.43598 36115 ft 438 kts 306°
2026-05-08 07:53 43.40811 19.37311 36105 ft 437 kts 306°
2026-05-08 07:53 43.44785 19.30983 36104 ft 437 kts 306°
2026-05-08 07:54 43.48768 19.24648 36099 ft 437 kts 306°
2026-05-08 07:54 43.52744 19.18316 36103 ft 437 kts 306°
2026-05-08 07:55 43.56710 19.11972 36097 ft 437 kts 306°
2026-05-08 07:55 43.60666 19.05625 36102 ft 436 kts 305°
2026-05-08 07:56 43.64617 18.99273 36107 ft 435 kts 305°
2026-05-08 07:56 43.68568 18.92926 36123 ft 435 kts 306°
2026-05-08 07:57 43.72485 18.86617 36113 ft 435 kts 306°
2026-05-08 07:57 43.76423 18.80255 36115 ft 435 kts 306°
2026-05-08 07:58 43.80356 18.73901 36114 ft 434 kts 306°
2026-05-08 07:58 43.84288 18.67532 36117 ft 434 kts 306°
2026-05-08 07:59 43.88205 18.61167 36137 ft 433 kts 306°
2026-05-08 07:59 43.92080 18.54836 36122 ft 432 kts 306°
2026-05-08 08:00 43.95968 18.48474 36125 ft 432 kts 306°
2026-05-08 08:00 43.99852 18.42109 36121 ft 432 kts 306°
2026-05-08 08:01 44.03736 18.35747 36114 ft 432 kts 306°
2026-05-08 08:01 44.07625 18.29373 36128 ft 432 kts 306°
2026-05-08 08:02 44.11498 18.22994 36126 ft 431 kts 306°
2026-05-08 08:02 44.15358 18.16611 36121 ft 431 kts 306°
2026-05-08 08:03 44.19215 18.10238 36139 ft 430 kts 306°
2026-05-08 08:03 44.23045 18.03894 36127 ft 430 kts 306°
2026-05-08 08:04 44.26884 17.97504 36133 ft 430 kts 306°
2026-05-08 08:04 44.30728 17.91107 36128 ft 429 kts 306°
2026-05-08 08:05 44.34558 17.84709 36108 ft 429 kts 305°
2026-05-08 08:05 44.38382 17.78292 36140 ft 429 kts 305°
2026-05-08 08:06 44.42182 17.71907 36129 ft 429 kts 305°
2026-05-08 08:06 44.45999 17.65502 36119 ft 428 kts 305°
2026-05-08 08:07 44.49810 17.59093 36116 ft 428 kts 305°
2026-05-08 08:07 44.53615 17.52679 36128 ft 428 kts 305°
2026-05-08 08:08 44.57402 17.46250 36121 ft 427 kts 305°
2026-05-08 08:08 44.61187 17.39817 36123 ft 427 kts 305°
2026-05-08 08:09 44.64975 17.33387 36134 ft 427 kts 305°
2026-05-08 08:09 44.68749 17.26956 36131 ft 426 kts 304°
2026-05-08 08:10 44.72510 17.20531 36137 ft 425 kts 305°
2026-05-08 08:10 44.76268 17.14105 36133 ft 424 kts 305°
2026-05-08 08:11 44.80010 17.07685 36127 ft 424 kts 304°
2026-05-08 08:11 44.83747 17.01260 36124 ft 424 kts 304°
2026-05-08 08:12 44.87476 16.94829 36141 ft 423 kts 304°
2026-05-08 08:12 44.91175 16.88441 36143 ft 423 kts 304°
2026-05-08 08:13 44.94890 16.82013 36140 ft 422 kts 304°
2026-05-08 08:13 44.98599 16.75574 36130 ft 422 kts 304°
2026-05-08 08:14 45.02288 16.69131 36126 ft 422 kts 304°
2026-05-08 08:14 45.05969 16.62691 36139 ft 421 kts 304°
2026-05-08 08:15 45.09057 16.57282 36132 ft 421 kts 304°
2026-05-08 08:15 45.12716 16.50858 36129 ft 421 kts 304°
2026-05-08 08:16 45.16396 16.44388 36126 ft 421 kts 304°
2026-05-08 08:16 45.20069 16.37921 36133 ft 421 kts 304°
2026-05-08 08:17 45.23749 16.31448 36130 ft 422 kts 304°
2026-05-08 08:17 45.27436 16.24949 36124 ft 422 kts 304°
2026-05-08 08:18 45.31104 16.18443 36121 ft 422 kts 304°
2026-05-08 08:18 45.34752 16.11958 36118 ft 422 kts 304°
2026-05-08 08:19 45.38418 16.05440 36131 ft 422 kts 303°